Wind from 344 at 3 knots gusting 6

Air temperature -0.6° C
Dewpoint -6.1° C

Last reported at 2014-Apr-23 22:42 UTC.
Time now 2014-Apr-24 00:02 UTC

Location: N 61°39' E 024°21'.
View on Google Maps.

See reports from other nearby stations

Tides Stations Pressure Air Temp Water Temp Dewpoint Dewpoint depression Visibility Wind Speed Wind Dir Waves Ship positions

  
sailing weather and tide predictions

DW6455 Orivesi FI weather

date/time (UTC)wind fromknots sea level pressurealtimeterstation pressurevisibilityair tempwater tempwave heightnotes
2014-Apr-23 22:42 344 3 gusting 6 -0.6
2014-Apr-23 22:37 355 3 gusting 6 -0.6
2014-Apr-23 22:32 009 3 gusting 6 -0.6
2014-Apr-23 22:27 336 3 gusting 4 -0.6
2014-Apr-23 22:22 355 2 gusting 4 -0.6
2014-Apr-23 22:17 343 2 gusting 4 -0.6
2014-Apr-23 22:12 343 2 gusting 4 -0.6
2014-Apr-23 22:07 343 2 gusting 4 -0.6
2014-Apr-23 22:02 343 2 gusting 3 -0.6
2014-Apr-23 21:57 343 2 gusting 3 -0.6
2014-Apr-23 21:52 343 2 gusting 3 -0.6
2014-Apr-23 21:47 343 2 gusting 3 -1.1
2014-Apr-23 21:42 342 2 gusting 2 -1.1
2014-Apr-23 21:37 342 1 gusting 2 -1.1
2014-Apr-23 21:32 342 1 gusting 3 -1.7
2014-Apr-23 21:27 342 1 gusting 3 -1.7
2014-Apr-23 21:22 342 1 gusting 4 -1.7
2014-Apr-23 21:17 342 2 gusting 4 -1.7
2014-Apr-23 21:12 342 2 gusting 4 -1.7
2014-Apr-23 21:07 342 2 gusting 4 -1.7
2014-Apr-23 21:02 342 2 gusting 3 -2.2
2014-Apr-23 20:57 342 0 gusting 2 -2.2
2014-Apr-23 20:52 011 0 gusting 2 -2.2
2014-Apr-23 20:47 011 0 gusting 2 -2.2
2014-Apr-23 20:42 011 0 gusting 2 -2.2
2014-Apr-23 20:37 011 0 gusting 2 -2.2
2014-Apr-23 20:32 011 0 gusting 2 -1.7
2014-Apr-23 20:27 011 0 gusting 2 -1.7
2014-Apr-23 20:22 011 0 gusting 2 -1.7
2014-Apr-23 20:17 011 1 gusting 2 -1.7
2014-Apr-23 20:12 011 1 gusting 2 -1.1
2014-Apr-23 20:07 011 1 gusting 2 -1.1
2014-Apr-23 20:02 011 2 gusting 2 -1.1
2014-Apr-23 19:57 011 1 gusting 1 -1.1
2014-Apr-23 19:52 011 0 gusting 1 -1.1
2014-Apr-23 19:47 011 0 gusting 1 -0.6
2014-Apr-23 19:42 011 -0.6
2014-Apr-23 19:37 011 0 gusting 2 -0.6
2014-Apr-23 19:32 011 0 gusting 2 -0.6
2014-Apr-23 19:27 011 1 gusting 2 -0.6
2014-Apr-23 19:22 011 1 gusting 2 -0.6
2014-Apr-23 19:17 011 1 gusting 2 -0.6
2014-Apr-23 19:12 011 1 gusting 1 -0.0
2014-Apr-23 19:07 011 0 gusting 1 -0.0
2014-Apr-23 19:02 011 0 gusting 2 0.6
2014-Apr-23 18:57 011 0 gusting 3 1.1
2014-Apr-23 18:47 011 1 gusting 3 1.7
2014-Apr-23 18:42 011 1 gusting 2 2.2
2014-Apr-23 18:37 011 1 gusting 2 2.8
2014-Apr-23 18:32 011 1 gusting 3 3.3
2014-Apr-23 18:27 011 1 gusting 3 3.9
2014-Apr-23 18:22 011 2 gusting 3 4.4
2014-Apr-23 18:17 011 2 gusting 4 4.4
2014-Apr-23 18:12 011 1 gusting 6 5.0
2014-Apr-23 18:07 011 2 gusting 6 5.0
2014-Apr-23 18:02 011 2 gusting 6 5.6
2014-Apr-23 17:57 027 3 gusting 6 5.6
2014-Apr-23 17:52 027 3 gusting 5 5.6
2014-Apr-23 17:47 026 2 gusting 4 6.1
2014-Apr-23 17:42 026 1 gusting 6 6.1
2014-Apr-23 17:37 026 1 gusting 6 6.1
2014-Apr-23 17:32 026 2 gusting 6 6.7
2014-Apr-23 17:27 024 2 gusting 6 6.7
2014-Apr-23 17:22 057 2 gusting 6 6.7
2014-Apr-23 17:17 015 2 gusting 8 6.7
2014-Apr-23 17:12 015 3 gusting 8 7.2
2014-Apr-23 17:07 050 4 gusting 8 7.2
2014-Apr-23 17:02 061 4 gusting 10 7.2
2014-Apr-23 16:57 047 3 gusting 10 7.2
2014-Apr-23 16:52 053 5 gusting 10 7.2
2014-Apr-23 16:47 038 5 gusting 8 7.2
2014-Apr-23 16:42 079 4 gusting 9 7.8
2014-Apr-23 16:37 044 4 gusting 9 7.8
2014-Apr-23 16:32 015 4 gusting 10 7.8
2014-Apr-23 16:27 027 4 gusting 10 7.8
2014-Apr-23 16:22 037 5 gusting 10 7.8
2014-Apr-23 16:17 024 6 gusting 9 7.8
2014-Apr-23 16:12 026 5 gusting 10 7.8
2014-Apr-23 16:07 039 4 gusting 10 8.3
2014-Apr-23 16:02 344 5 gusting 10 8.3
2014-Apr-23 15:57 055 4 gusting 9 7.8
2014-Apr-23 15:52 030 5 gusting 9 7.8
2014-Apr-23 15:47 005 5 gusting 9 7.8
2014-Apr-23 15:42 030 3 gusting 11 7.8
2014-Apr-23 15:37 022 3 gusting 11 7.8
2014-Apr-23 15:32 049 4 gusting 12 7.8
2014-Apr-23 15:27 022 6 gusting 12 8.3
2014-Apr-23 15:22 009 6 gusting 10 8.3
2014-Apr-23 15:17 011 6 gusting 10 8.3
2014-Apr-23 15:12 092 4 gusting 12 8.3
2014-Apr-23 15:07 336 4 gusting 12 8.3
2014-Apr-23 15:02 038 6 gusting 12 8.3
2014-Apr-23 14:57 024 6 gusting 12 8.3
2014-Apr-23 14:52 019 6 gusting 10 8.3
2014-Apr-23 14:47 017 5 gusting 11 8.3
2014-Apr-23 14:42 020 5 gusting 11 8.3
2014-Apr-23 14:37 055 6 gusting 11 8.3
2014-Apr-23 14:32 036 5 gusting 9 8.3
2014-Apr-23 14:27 038 5 gusting 9 8.3
2014-Apr-23 14:22 033 5 gusting 10 8.3
2014-Apr-23 14:17 026 6 gusting 11 8.3
2014-Apr-23 14:12 046 5 gusting 10 8.3
2014-Apr-23 14:07 028 5 gusting 10 8.3
2014-Apr-23 14:02 010 5 gusting 13 8.3
2014-Apr-23 13:57 022 5 gusting 17 8.3
2014-Apr-23 13:52 042 6 gusting 17 8.3
2014-Apr-23 13:47 032 8 gusting 17 8.3
2014-Apr-23 13:42 013 8 gusting 14 8.3
2014-Apr-23 13:37 005 7 gusting 15 8.3
2014-Apr-23 13:32 005 6 gusting 15 8.3
2014-Apr-23 13:27 103 6 gusting 15 8.3
2014-Apr-23 13:22 340 7 gusting 14 8.3
2014-Apr-23 13:17 8.3
2014-Apr-23 13:12 355 7 gusting 13 8.3
2014-Apr-23 13:07 332 6 gusting 13 8.9
2014-Apr-23 13:02 019 6 gusting 13 8.9
2014-Apr-23 12:57 8.9
2014-Apr-23 12:52 072 5 gusting 12 8.9
2014-Apr-23 12:47 044 6 gusting 12 8.3
2014-Apr-23 12:42 355 6 gusting 13 8.3
2014-Apr-23 12:37 343 8 gusting 13 8.3
2014-Apr-23 12:32 313 6 gusting 12 8.3
2014-Apr-23 12:27 021 6 gusting 12 8.3
2014-Apr-23 12:22 351 6 gusting 12 8.3
2014-Apr-23 12:17 355 6 gusting 12 8.3
2014-Apr-23 12:12 005 5 gusting 16 8.3
2014-Apr-23 12:07 065 6 gusting 16 8.3
2014-Apr-23 12:02 033 7 gusting 16 8.3
2014-Apr-23 11:57 040 7 gusting 13 8.3
2014-Apr-23 11:52 343 7 gusting 13 8.3
2014-Apr-23 11:47 098 7 gusting 13 8.3
2014-Apr-23 11:42 337 6 gusting 13 8.3
2014-Apr-23 11:37 036 6 gusting 13 8.3
2014-Apr-23 11:32 349 6 gusting 12 8.3
2014-Apr-23 11:27 025 6 gusting 12 8.3
2014-Apr-23 11:22 049 6 gusting 12 8.3
2014-Apr-23 11:17 020 6 gusting 13 8.3
2014-Apr-23 11:12 022 5 gusting 14 8.3
2014-Apr-23 11:07 019 6 gusting 14 8.3
2014-Apr-23 11:02 344 8 gusting 14 8.3
2014-Apr-23 10:57 325 6 gusting 11 8.3
2014-Apr-23 10:52 336 5 gusting 16 8.3
2014-Apr-23 10:47 038 6 gusting 16 7.8
2014-Apr-23 10:42 7.8
2014-Apr-23 10:37 327 6 gusting 13 7.8
2014-Apr-23 10:32 005 5 gusting 13 7.8
2014-Apr-23 10:27 064 7 gusting 13 7.8
2014-Apr-23 10:22 355 6 gusting 14 7.8
2014-Apr-23 10:17 355 6 gusting 18 7.8
2014-Apr-23 10:12 339 6 gusting 18 7.8
2014-Apr-23 10:07 331 8 gusting 18 7.8
2014-Apr-23 10:02 344 7 gusting 13 7.8
2014-Apr-23 09:57 021 6 gusting 13 7.8
2014-Apr-23 09:52 336 6 gusting 13 7.2
2014-Apr-23 09:47 324 6 gusting 13 7.2
2014-Apr-23 09:42 017 6 gusting 15 7.2
2014-Apr-23 09:37 326 6 gusting 15 7.2
2014-Apr-23 09:32 340 7 gusting 13 7.2
2014-Apr-23 09:27 005 6 gusting 13 7.2
2014-Apr-23 09:22 036 5 gusting 12 7.2
2014-Apr-23 09:17 342 6 gusting 12 6.7
2014-Apr-23 09:12 042 6 gusting 13 6.7
2014-Apr-23 09:02 044 6 gusting 11 6.7
2014-Apr-23 08:57 079 5 gusting 11 6.7
2014-Apr-23 08:52 060 5 gusting 13 6.7
2014-Apr-23 08:47 065 5 gusting 13 6.7
2014-Apr-23 08:42 041 6 gusting 13 6.7
2014-Apr-23 08:37 344 6 gusting 13 6.7
2014-Apr-23 08:32 061 5 gusting 15 6.7
2014-Apr-23 08:27 044 6 gusting 15 6.1
2014-Apr-23 08:22 061 7 gusting 13 6.1
2014-Apr-23 08:17 017 8 gusting 14 6.1
2014-Apr-23 08:12 042 7 gusting 14 6.1
2014-Apr-23 08:07 019 7 gusting 14 6.1
2014-Apr-23 08:02 5.6
2014-Apr-23 07:57 005 7 gusting 15 5.6
2014-Apr-23 07:52 038 8 gusting 15 5.6
2014-Apr-23 07:47 033 9 gusting 15 5.6
2014-Apr-23 07:42 355 8 gusting 21 5.6
2014-Apr-23 07:37 009 8 gusting 21 5.6
2014-Apr-23 07:32 043 9 gusting 21 5.6
2014-Apr-23 07:27 020 8 gusting 18 5.6
2014-Apr-23 07:17 338 9 gusting 18 5.6
2014-Apr-23 07:12 311 9 gusting 18 5.6
2014-Apr-23 07:07 345 11 gusting 18 5.0
2014-Apr-23 07:02 009 9 gusting 13 5.6
2014-Apr-23 06:57 355 6 gusting 13 5.6
2014-Apr-23 06:52 355 5 gusting 11 5.0
2014-Apr-23 06:47 063 6 gusting 11 5.0
2014-Apr-23 06:42 030 6 gusting 11 5.0
2014-Apr-23 06:37 025 6 gusting 11 4.4
2014-Apr-23 06:32 042 6 gusting 11 4.4
2014-Apr-23 06:27 017 6 gusting 11 4.4
2014-Apr-23 06:22 018 6 gusting 10 4.4
2014-Apr-23 06:17 022 5 gusting 9 4.4
2014-Apr-23 06:12 026 5 gusting 9 4.4
2014-Apr-23 06:07 043 5 gusting 9 3.9
2014-Apr-23 06:02 038 4 gusting 10 3.9
2014-Apr-23 05:57 044 5 gusting 10 4.4
2014-Apr-23 05:52 4.4
2014-Apr-23 05:47 334 6 gusting 13 4.4
2014-Apr-23 05:42 035 6 gusting 13 4.4
2014-Apr-23 05:37 051 5 gusting 13 4.4
2014-Apr-23 05:32 028 4 gusting 9 3.9
2014-Apr-23 05:27 321 5 gusting 9 3.9
2014-Apr-23 05:22 346 5 gusting 10 3.3
2014-Apr-23 05:17 355 5 gusting 10 3.3
2014-Apr-23 05:12 036 4 gusting 9 3.3
2014-Apr-23 05:07 024 4 gusting 9 2.8
2014-Apr-23 05:02 032 4 gusting 9 2.2
2014-Apr-23 04:57 2.2
2014-Apr-23 04:52 355 3 gusting 7 2.2
2014-Apr-23 04:47 348 3 gusting 8 2.2
2014-Apr-23 04:42 330 4 gusting 8 1.7
2014-Apr-23 04:37 005 4 gusting 8 1.1
2014-Apr-23 04:32 339 5 gusting 8 0.6
2014-Apr-23 04:27 355 4 gusting 8 0.6
2014-Apr-23 04:22 355 3 gusting 7 0.6
2014-Apr-23 04:17 355 3 gusting 7 0.6
2014-Apr-23 04:12 355 4 gusting 8 -0.0
2014-Apr-23 04:07 -0.0
2014-Apr-23 04:02 333 4 gusting 9 -0.0
2014-Apr-23 03:57 340 3 gusting 9 -0.0
2014-Apr-23 03:52 348 4 gusting 9 -0.0
2014-Apr-23 03:47 005 5 gusting 11 -0.0
2014-Apr-23 03:42 333 5 gusting 11 -0.6
2014-Apr-23 03:37 343 5 gusting 11 -0.6
2014-Apr-23 03:32 333 5 gusting 11 -0.6
2014-Apr-23 03:27 324 6 gusting 10 -0.6
2014-Apr-23 03:22 337 5 gusting 10 -0.6
2014-Apr-23 03:17 348 5 gusting 7 -0.6
2014-Apr-23 03:12 332 5 gusting 7 -1.1
2014-Apr-23 03:07 330 4 gusting 7 -1.1
2014-Apr-23 03:02 011 4 gusting 7 -1.1
2014-Apr-23 02:57 013 3 gusting 6 -1.7
2014-Apr-23 02:52 005 3 gusting 6 -1.7
2014-Apr-23 02:47 -1.7
2014-Apr-23 02:42 337 3 gusting 6 -1.7
2014-Apr-23 02:37 344 3 gusting 6 -1.7
2014-Apr-23 02:32 346 3 gusting 6 -1.7
2014-Apr-23 02:27 324 3 gusting 6 -1.7
2014-Apr-23 02:22 344 3 gusting 6 -1.7
2014-Apr-23 02:17 350 2 gusting 6 -1.7
2014-Apr-23 02:12 340 3 gusting 6 -1.1
2014-Apr-23 02:07 005 3 gusting 5 -1.1
2014-Apr-23 02:02 336 3 gusting 5 -1.1
2014-Apr-23 01:57 337 3 gusting 8 -1.1
2014-Apr-23 01:52 344 3 gusting 8 -1.1
2014-Apr-23 01:47 336 3 gusting 8 -1.1
2014-Apr-23 01:42 342 3 gusting 6 -1.1
2014-Apr-23 01:37 338 2 gusting 6 -1.1
2014-Apr-23 01:32 342 2 gusting 4 -1.1
2014-Apr-23 01:27 338 2 gusting 4 -0.6
2014-Apr-23 01:17 338 0 gusting 4 -0.6
2014-Apr-23 01:07 339 2 gusting 5 -0.6
2014-Apr-23 01:02 335 3 gusting 5 -0.6
2014-Apr-23 00:57 323 3 gusting 5 -0.6
2014-Apr-22 23:57 350 4 gusting 7 1.1
2014-Apr-22 23:52 355 4 gusting 8 1.1
2014-Apr-22 23:47 340 4 gusting 8 1.1
2014-Apr-22 23:42 343 4 gusting 9 1.1
2014-Apr-22 23:37 341 4 gusting 9 1.1
2014-Apr-22 23:32 1.1
2014-Apr-22 23:27 344 3 gusting 7 1.1
2014-Apr-22 23:22 347 4 gusting 8 1.7
2014-Apr-22 23:17 331 5 gusting 8 1.7
2014-Apr-22 23:12 355 5 gusting 9 1.7
2014-Apr-22 23:07 342 5 gusting 9 1.7
2014-Apr-22 23:02 341 5 gusting 7 1.7
2014-Apr-22 22:57 1.7
2014-Apr-22 22:52 351 4 gusting 9 1.7
2014-Apr-22 22:47 349 5 gusting 9 1.7
2014-Apr-22 22:42 338 5 gusting 7 1.7
2014-Apr-22 22:37 334 4 gusting 7 1.7
2014-Apr-22 22:32 355 4 gusting 7 1.7
2014-Apr-22 22:27 344 4 gusting 7 1.7
2014-Apr-22 22:22 348 4 gusting 7 1.7
2014-Apr-22 22:17 325 4 gusting 7 2.2
2014-Apr-22 22:07 348 4 gusting 6 2.2
2014-Apr-22 22:02 325 3 gusting 6 2.8
2014-Apr-22 21:57 350 3 gusting 6 2.8
2014-Apr-22 21:52 338 4 gusting 8 2.8
2014-Apr-22 21:47 343 4 gusting 8 3.3
2014-Apr-22 21:42 327 4 gusting 8 3.3
2014-Apr-22 21:37 3.3
2014-Apr-22 21:32 015 5 gusting 7 3.3
2014-Apr-22 21:27 340 4 gusting 8 3.3
2014-Apr-22 21:22 350 5 gusting 8 3.3
2014-Apr-22 21:17 355 5 gusting 8 3.3
2014-Apr-22 21:12 355 5 gusting 10 3.3
2014-Apr-22 21:07 348 5 gusting 10 3.9
2014-Apr-22 21:02 333 5 gusting 10 3.9
2014-Apr-22 20:57 3.9
2014-Apr-22 20:52 338 6 gusting 10 3.9
2014-Apr-22 20:47 014 5 gusting 10 3.9
2014-Apr-22 20:42 333 4 gusting 8 3.9
2014-Apr-22 20:37 011 4 gusting 8 3.9
2014-Apr-22 20:32 355 4 gusting 9 4.4
2014-Apr-22 20:27 355 4 gusting 9 4.4
2014-Apr-22 20:22 346 5 gusting 10 4.4
2014-Apr-22 20:17 342 5 gusting 10 4.4
2014-Apr-22 20:12 355 6 gusting 10 4.4
2014-Apr-22 20:07 005 6 gusting 10 4.4
2014-Apr-22 20:02 015 5 gusting 10 4.4
2014-Apr-22 19:57 005 5 gusting 10 5.0
2014-Apr-22 19:52 349 5 gusting 9 5.0
2014-Apr-22 19:47 344 5 gusting 9 5.0
2014-Apr-22 19:42 344 5 gusting 9 5.0
2014-Apr-22 19:37 350 5 gusting 9 5.0
2014-Apr-22 19:32 348 4 gusting 9 5.6
2014-Apr-22 19:27 345 4 gusting 9 5.6
2014-Apr-22 19:22 325 4 gusting 10 6.1
2014-Apr-22 19:12 348 6 gusting 9 6.1
2014-Apr-22 19:07 005 5 gusting 9 6.1
2014-Apr-22 19:02 348 6 gusting 13 6.7
2014-Apr-22 18:57 347 6 gusting 13 6.7
2014-Apr-22 18:52 355 6 gusting 15 6.7
2014-Apr-22 18:47 347 6 gusting 15 6.7
2014-Apr-22 18:42 346 6 gusting 13 7.2
2014-Apr-22 18:37 326 7 gusting 13 7.2
2014-Apr-22 18:32 017 7 gusting 16 7.2
2014-Apr-22 18:27 344 7 gusting 16 7.8
2014-Apr-22 18:22 311 7 gusting 18 7.8
2014-Apr-22 18:17 336 7 gusting 18 7.8
2014-Apr-22 18:12 342 8 gusting 18 8.3
2014-Apr-22 18:07 340 9 gusting 18 8.3
2014-Apr-22 18:02 018 9 gusting 15 8.3
2014-Apr-22 17:57 011 8 gusting 15 8.3
2014-Apr-22 17:52 8.9
2014-Apr-22 17:47 8.9
2014-Apr-22 17:42 355 9 gusting 14 9.4
2014-Apr-22 17:37 017 8 gusting 14 9.4
2014-Apr-22 17:32 355 7 gusting 14 9.4
2014-Apr-22 17:27 005 7 gusting 14 9.4
2014-Apr-22 17:22 350 8 gusting 13 9.4
2014-Apr-22 17:17 015 7 gusting 13 10.0
2014-Apr-22 17:12 022 6 gusting 18 10.0
2014-Apr-22 17:07 005 8 gusting 18 10.0
2014-Apr-22 17:02 020 8 gusting 16 10.0
2014-Apr-22 16:57 013 7 gusting 16 10.6
2014-Apr-22 16:52 017 8 gusting 17 10.6
2014-Apr-22 16:47 055 10 gusting 17 10.6
2014-Apr-22 16:42 030 8 gusting 18 11.1
2014-Apr-22 16:37 022 6 gusting 18 11.1
2014-Apr-22 16:32 005 8 gusting 19 11.7
2014-Apr-22 16:27 010 10 gusting 19 11.7
2014-Apr-22 16:22 005 9 gusting 15 12.2
2014-Apr-22 16:17 348 9 gusting 15 12.2
2014-Apr-22 16:12 016 7 gusting 17 12.2
2014-Apr-22 16:07 330 7 gusting 17 12.8
2014-Apr-22 16:02 327 9 gusting 14 12.8
2014-Apr-22 15:57 005 9 gusting 14 12.8
2014-Apr-22 15:52 355 9 gusting 15 12.8
2014-Apr-22 15:47 355 10 gusting 15 12.8
2014-Apr-22 15:42 346 8 gusting 14 12.8
2014-Apr-22 15:37 023 7 gusting 14 12.8
2014-Apr-22 15:32 005 7 gusting 14 13.3
2014-Apr-22 15:27 329 8 gusting 14 13.3
2014-Apr-22 15:22 13.3
2014-Apr-22 15:17 014 7 gusting 14 13.3
2014-Apr-22 15:12 342 7 gusting 16 13.3
2014-Apr-22 15:07 005 7 gusting 16 13.3
2014-Apr-22 15:02 326 8 gusting 16 13.3
2014-Apr-22 14:57 13.3
2014-Apr-22 14:52 009 9 gusting 15 13.9
2014-Apr-22 14:47 333 8 gusting 15 13.9
2014-Apr-22 14:42 13.9
2014-Apr-22 14:37 14.4
2014-Apr-22 14:32 005 7 gusting 13 14.4
2014-Apr-22 14:27 355 7 gusting 13 14.4
2014-Apr-22 14:22 338 8 gusting 15 14.4
2014-Apr-22 14:17 344 8 gusting 15 14.4
2014-Apr-22 14:12 355 8 gusting 14 14.4
2014-Apr-22 14:07 349 8 gusting 14 14.4
2014-Apr-22 14:02 024 9 gusting 14 14.4
2014-Apr-22 13:57 005 8 gusting 14 14.4
2014-Apr-22 13:52 330 7 gusting 16 14.4
2014-Apr-22 13:47 337 7 gusting 16 14.4
2014-Apr-22 13:42 341 8 gusting 13 14.4
2014-Apr-22 13:37 14.4
2014-Apr-22 13:32 028 7 gusting 17 14.4
2014-Apr-22 13:27 336 6 gusting 17 14.4
2014-Apr-22 13:22 005 7 gusting 17 14.4
2014-Apr-22 13:17 017 8 gusting 17 14.4
2014-Apr-22 13:12 332 8 gusting 13 14.4
2014-Apr-22 13:07 355 7 gusting 13 14.4
2014-Apr-22 13:02 327 6 gusting 15 14.4
2014-Apr-22 12:57 005 8 gusting 15 14.4
2014-Apr-22 12:52 005 8 gusting 13 14.4
2014-Apr-22 12:47 346 7 gusting 13 14.4
2014-Apr-22 12:42 005 6 gusting 13 14.4
2014-Apr-22 12:37 339 6 gusting 13 14.4
2014-Apr-22 12:32 349 7 gusting 13 14.4
2014-Apr-22 12:27 023 7 gusting 13 14.4
2014-Apr-22 12:22 330 8 gusting 13 14.4
2014-Apr-22 12:17 331 7 gusting 13 14.4
2014-Apr-22 12:12 343 6 gusting 12 14.4
2014-Apr-22 12:07 334 5 gusting 12 14.4
2014-Apr-22 12:02 005 6 gusting 12 14.4
2014-Apr-22 11:57 323 6 gusting 12 14.4
2014-Apr-22 11:52 322 4 gusting 12 14.4
2014-Apr-22 11:47 325 5 gusting 12 14.4
2014-Apr-22 11:42 036 7 gusting 13 14.4
2014-Apr-22 11:37 032 6 gusting 13 14.4
2014-Apr-22 11:32 341 6 gusting 14 13.9
2014-Apr-22 11:27 342 7 gusting 14 13.9
2014-Apr-22 11:22 327 7 gusting 16 13.9
2014-Apr-22 11:17 033 8 gusting 16 13.9
2014-Apr-22 11:07 342 7 gusting 14 13.9
2014-Apr-22 11:02 015 7 gusting 13 14.4
2014-Apr-22 10:57 14.4
2014-Apr-22 10:52 327 8 gusting 13 13.9
2014-Apr-22 10:47 009 8 gusting 13 13.9
2014-Apr-22 10:42 325 7 gusting 17 13.9
2014-Apr-22 10:37 028 6 gusting 17 14.4
2014-Apr-22 10:32 009 6 gusting 13 14.4
2014-Apr-22 10:27 341 6 gusting 13 14.4
2014-Apr-22 10:22 342 6 gusting 15 14.4
2014-Apr-22 10:17 005 7 gusting 15 13.9
2014-Apr-22 10:12 005 8 gusting 16 13.9
2014-Apr-22 10:07 324 8 gusting 16 13.9
2014-Apr-22 10:02 024 8 gusting 16 13.9
2014-Apr-22 09:52 344 8 gusting 13 13.9
2014-Apr-22 09:47 355 7 gusting 13 13.9
2014-Apr-22 09:42 340 7 gusting 15 13.9
2014-Apr-22 09:37 340 8 gusting 15 13.9
2014-Apr-22 09:32 355 8 gusting 15 13.9
2014-Apr-22 09:27 012 8 gusting 15 13.9
2014-Apr-22 09:22 020 8 gusting 15 13.9
2014-Apr-22 09:17 355 8 gusting 13 13.9
2014-Apr-22 09:12 346 8 gusting 14 13.9
2014-Apr-22 09:07 318 8 gusting 14 13.9
2014-Apr-22 09:02 349 8 gusting 14 14.4
2014-Apr-22 08:57 331 9 gusting 14 14.4
2014-Apr-22 08:52 034 7 gusting 12 14.4
2014-Apr-22 08:47 029 6 gusting 12 14.4
2014-Apr-22 08:42 321 5 gusting 12 14.4
2014-Apr-22 08:37 023 5 gusting 12 14.4
2014-Apr-22 08:32 330 6 gusting 12 13.9
2014-Apr-22 08:27 334 6 gusting 12 13.9
2014-Apr-22 08:22 319 6 gusting 13 13.9
2014-Apr-22 08:17 338 6 gusting 13 13.9
2014-Apr-22 08:12 349 6 gusting 13 13.9
2014-Apr-22 08:07 315 6 gusting 13 13.9
2014-Apr-22 08:02 351 6 gusting 11 13.9
2014-Apr-22 07:57 340 6 gusting 11 13.9
2014-Apr-22 07:52 332 6 gusting 9 13.9
2014-Apr-22 07:47 335 5 gusting 9 13.9
2014-Apr-22 07:42 348 5 gusting 11 13.3
2014-Apr-22 07:37 13.3
2014-Apr-22 07:32 337 6 gusting 10 13.3
2014-Apr-22 07:27 324 6 gusting 10 13.3
2014-Apr-22 07:22 325 4 gusting 9 13.3
2014-Apr-22 07:17 034 4 gusting 9 12.8
2014-Apr-22 07:12 12.8
2014-Apr-22 07:07 013 2 gusting 6 12.8
2014-Apr-22 07:02 12.2
2014-Apr-22 06:57 016 2 gusting 5 12.2
2014-Apr-22 06:52 005 1 gusting 6 12.2
2014-Apr-22 06:47 005 2 gusting 6 11.7
2014-Apr-22 06:42 331 2 gusting 4 11.7
2014-Apr-22 06:37 337 1 gusting 4 11.1
2014-Apr-22 06:32 336 1 gusting 5 11.1
2014-Apr-22 06:27 341 1 gusting 5 10.6
2014-Apr-22 06:22 011 1 gusting 4 10.6
2014-Apr-22 06:17 325 1 gusting 4 10.0
2014-Apr-22 06:12 025 1 gusting 3 10.0
2014-Apr-22 06:07 056 1 gusting 3 10.0
2014-Apr-22 06:02 056 1 gusting 4 9.4
2014-Apr-22 05:57 052 1 gusting 4 9.4
2014-Apr-22 05:52 051 1 gusting 4 10.0
2014-Apr-22 05:47 037 1 gusting 4 10.6
2014-Apr-22 05:42 037 1 gusting 4 10.6
2014-Apr-22 05:37 020 1 gusting 4 10.6
2014-Apr-22 05:32 019 2 gusting 3 10.6
2014-Apr-22 05:27 355 1 gusting 3 10.0
2014-Apr-22 05:22 349 1 gusting 3 9.4
2014-Apr-22 05:17 349 1 gusting 3 9.4
2014-Apr-22 05:12 349 1 gusting 4 8.9
2014-Apr-22 05:07 349 1 gusting 4 8.9
2014-Apr-22 05:02 8.3
2014-Apr-22 04:57 344 0 gusting 6 8.3
2014-Apr-22 04:52 340 1 gusting 6 7.8
2014-Apr-22 04:47 339 1 gusting 6 6.7
2014-Apr-22 04:42 355 0 gusting 1 5.6
2014-Apr-22 04:37 341 0 gusting 1 4.4
2014-Apr-22 04:32 341 0 gusting 1 4.4
2014-Apr-22 04:27 341 3.9
2014-Apr-22 04:22 341 3.3
2014-Apr-22 04:17 341 3.3
2014-Apr-22 04:12 341 3.3
2014-Apr-22 04:07 341 2.8
2014-Apr-22 04:02 341 2.8
2014-Apr-22 03:57 341 2.8
2014-Apr-22 03:52 341 2.8
2014-Apr-22 03:47 341 2.2
2014-Apr-22 03:42 341 2.2
2014-Apr-22 03:37 341 2.2
2014-Apr-22 03:32 341 2.2
2014-Apr-22 03:27 341 2.2
2014-Apr-22 03:22 341 2.2
2014-Apr-22 03:17 341 0 gusting 1 2.2
2014-Apr-22 03:12 341 0 gusting 2 2.2
2014-Apr-22 03:07 341 0 gusting 2 2.8
2014-Apr-22 03:02 341 0 gusting 2 2.8
2014-Apr-22 02:57 341 1 gusting 2 2.8
2014-Apr-22 02:52 341 1 gusting 2 3.3
2014-Apr-22 02:47 341 1 gusting 2 3.3
2014-Apr-22 02:42 341 1 gusting 1 3.3
2014-Apr-22 02:37 341 1 gusting 1 3.9
2014-Apr-22 02:32 341 0 gusting 1 3.9
2014-Apr-22 02:27 341 0 gusting 1 3.9
2014-Apr-22 02:22 341 4.4
2014-Apr-22 02:17 341 4.4
2014-Apr-22 02:12 341 5.0
2014-Apr-22 02:07 341 5.0
2014-Apr-22 02:02 341 5.0
2014-Apr-22 01:57 341 0 gusting 1 5.0
2014-Apr-22 01:52 341 0 gusting 2 5.6
2014-Apr-22 01:47 341 5.6
2014-Apr-22 01:42 341 5.6
2014-Apr-22 01:37 341 0 gusting 3 5.6
2014-Apr-22 01:32 341 1 gusting 4 5.6
2014-Apr-22 01:27 341 1 gusting 4 6.1
2014-Apr-22 01:22 335 1 gusting 5 6.1
2014-Apr-22 01:17 334 2 gusting 5 6.1
2014-Apr-22 01:12 343 2 gusting 5 6.7
2014-Apr-22 01:02 338 2 gusting 7 6.7
2014-Apr-22 00:57 333 2 gusting 7 6.7
2014-Apr-22 00:52 339 3 gusting 8 6.7
2014-Apr-22 00:47 344 4 gusting 8 6.7
2014-Apr-22 00:42 330 4 gusting 7 6.7
2014-Apr-22 00:37 355 3 gusting 7 6.7
2014-Apr-22 00:32 344 4 gusting 8 6.7
2014-Apr-22 00:27 334 4 gusting 8 6.7
2014-Apr-22 00:22 349 4 gusting 6 6.7
2014-Apr-22 00:17 343 3 gusting 6 6.1
2014-Apr-22 00:12 346 3 gusting 5 6.1
2014-Apr-22 00:07 348 2 gusting 5 6.1
2014-Apr-22 00:02 346 2 gusting 5 6.1